Location: Finney State Fishing Lake and Wildlife Area
(38.1834°N, 100.3310°W)
Time: 11:28:37
(UTC+00:00)

USA 229 DEB - Pass Details

Date: 17 October 2021
Orbit: 944 x 1268 km, 63.4° (Epoch: 25 November)

Event Time Altitude Azimuth Distance (km) Brightness Sun altitude
Rises 12:12:55 0° 323° (NW) 4,023 6.3 -8.5°
Reaches altitude 10° 12:15:37 10° 319° (NW) 3,101 5.7 -8.0°
Maximum altitude 12:22:54 57° 244° (WSW) 1,431 4.1 -6.6°
Drops below altitude 10° 12:30:33 10° 168° (SSE) 3,237 6.5 -5.1°
Sets 12:33:25 0° 164° (SSE) 4,211 7.2 -4.5°
